Theta_e
315 313 310 309 307 304 304 302 302 302 302 301 302 300 299 298 299 298 297 296 295 297
310 309 307 308 306 303 302 303 301 301 300 300 300 299 298 298 298 297 297 296 296 296
308 307 306 304 302 301 301 301 300 300 300 300 300 299 298 297 297 296 296 296 296 295
306 306 304 302 302 302 301 300 300 300 300 299 299 298 296 296 297 296 295 296 297 296
302 303 303 303 300 301 298 299 299 299 301 300 298 297 298 298 297 296 296 297 297 297
302 303 301 298 297 297 297 297 298 299 299 300 298 298 299 300 299 299 298 298 297 297
300 300 300 298 297 297 297 297 297 299 300 299 299 299 299 300 299 300 300 299 299 299
302 302 302 302 301 301 301 300 300 299 298 298 299 300 297 298 296 294 296 299 300 301
302 301 300 300 300 300 300 299 298 299 299 298 301 302 304 298 295 295 294 296 297 298
303 300 299 298 296 297 297 296 295 295 296 296 298 301 301 304 295 294 294 294 295 298
304 303 301 299 297 295 294 294 293 294 295 296 299 301 300 302 297 294 294 295 296 296
306 303 302 300 299 297 296 296 296 297 297 295 296 300 301 301 297 295 295 297 298 299
305 303 301 300 298 297 297 297 299 299 299 301 299 300 300 300 298 295 298 300 300 303
304 304 301 300 300 298 298 299 298 299 299 299 300 300 300 300 299 298 297 300 297 299
Wind_Speed
10 6 8 9 8 5 5 5 5 6 6 6 6 6 6 4 4 6 6 8 6 5
8 9 7 11 9 5 5 5 6 6 7 6 6 6 7 5 6 6 5 6 6 5
7 9 9 11 11 8 6 6 7 6 7 6 6 6 7 5 5 7 4 4 7 6
10 10 9 10 9 9 7 7 6 7 6 6 6 5 6 7 6 7 6 5 6 7
8 9 8 7 6 6 7 7 6 6 6 6 6 5 6 6 6 7 7 6 6 5
7 8 8 7 6 6 7 7 7 7 6 6 5 6 5 6 5 5 6 6 4 3
6 6 5 6 6 7 6 7 6 6 6 5 5 4 4 6 6 6 4 2 2 2
4 3 4 5 6 6 5 5 5 4 5 3 3 2 1 4 5 3 1 3 3 2
6 5 3 3 4 5 5 4 3 2 2 3 2 1 2 4 3 5 4 4 5 4
5 4 5 4 4 5 4 3 3 1 2 2 2 6 7 6 3 5 5 5 5 5
7 5 5 5 4 3 2 4 3 4 4 4 5 9 10 10 5 5 7 7 7 6
6 6 5 5 7 5 4 4 5 5 6 6 8 8 10 8 5 6 8 8 6 7
7 7 7 8 7 5 5 6 5 6 6 8 7 9 11 8 4 5 5 6 5 6
9 9 8 7 5 6 6 5 5 6 6 6 7 8 12 13 5 5 4 4 1 2
Wind_Direction
139 129 135 133 139 123 133 130 127 112 105 99 103 91 84 79 75 68 70 74 62 68
102 112 129 137 125 114 117 121 111 106 95 87 94 95 91 86 91 76 73 77 73 75
83 94 105 112 111 119 113 109 114 105 100 94 108 112 100 88 86 87 72 79 77 72
92 98 100 113 125 132 133 131 118 118 112 104 100 106 99 104 101 93 86 72 82 80
93 96 99 95 92 107 113 113 119 114 111 109 107 106 124 116 114 107 90 85 77 73
77 82 88 83 86 87 95 99 106 111 104 92 101 97 105 113 111 118 130 127 122 143
83 95 96 109 104 100 106 105 108 113 116 125 116 123 118 89 85 75 66 87 210 239
94 93 110 111 111 104 98 90 83 88 87 65 61 54 61 135 115 89 311 320 317 293
147 156 135 120 120 113 122 112 97 98 192 226 230 230 133 185 170 213 222 252 272 269
180 163 164 169 165 162 163 180 210 233 222 225 287 275 260 260 251 239 230 240 262 292
195 189 186 161 202 191 198 215 211 237 243 249 257 241 243 253 238 244 251 242 242 238
199 194 189 198 211 209 208 215 222 223 229 233 258 254 255 254 229 237 245 250 242 232
195 193 193 210 208 205 198 215 206 235 231 235 253 257 247 237 216 235 253 261 255 276
203 204 204 208 192 197 214 218 229 238 248 250 241 263 263 261 210 208 212 226 261 15